Location: Clarks Summit,Pa.
(41.5000°N, 75.6000°W)
Time: 12:19:31
(UTC-04:00)

ISS - Visible Passes

Search period start: 19 September 2018 00:00
Search period end: 29 September 2018 00:00
Orbit: 402 x 408 km, 51.6° (Epoch: 20 September)

Date Brightness Start Highest point End Pass type
(mag) Time Alt. Az. Time Alt. Az. Time Alt. Az.
20 Sep -1.9 20:43:34 10° SSW 20:44:49 20° SSW 20:44:49 20° SSW visible
21 Sep -2.4 19:52:17 10° S 19:54:49 20° SE 19:55:53 18° ESE visible
21 Sep -0.9 21:27:54 10° WSW 21:28:37 15° WSW 21:28:37 15° WSW visible
22 Sep -3.9 20:35:46 10° SW 20:39:04 85° NW 20:39:24 69° NE visible
23 Sep -3.6 19:43:54 10° SW 19:47:06 50° SE 19:49:59 12° ENE visible
23 Sep -1.3 21:20:54 10° W 21:22:41 22° NW 21:22:41 22° NW visible
24 Sep -2.6 20:28:28 10° W 20:31:35 39° NNW 20:33:04 24° NNE visible
25 Sep -3.5 19:36:13 10° WSW 19:39:30 67° NNW 19:42:46 10° NE visible
25 Sep -1.1 21:14:05 10° WNW 21:15:59 18° NNW 21:15:59 18° NNW visible
26 Sep -1.7 20:21:28 10° WNW 20:24:11 23° NNW 20:26:07 15° NNE visible
27 Sep -2.3 19:28:56 10° W 19:31:58 33° NNW 19:35:00 10° NE visible
27 Sep -1.0 21:07:14 10° NW 21:08:48 14° NNW 21:08:48 14° NNW visible
28 Sep -1.3 20:14:36 10° NW 20:16:51 17° NNW 20:18:45 12° NNE visible
